TimeMST,TemperatureF,Dew PointF,Humidity,Sea Level PressureIn,VisibilityMPH,Wind Direction,Wind SpeedMPH,Gust SpeedMPH,PrecipitationIn,Events,Conditions,WindDirDegrees,DateUTC
12:53 AM,16.0,12.0,84,30.01,10.0,Calm,Calm,-,N/A,,Clear,0,2013-02-08 07:53:00
1:53 AM,9.0,6.1,88,30.04,10.0,ESE,6.9,-,N/A,,Clear,120,2013-02-08 08:53:00
2:53 AM,8.1,5.0,87,30.04,10.0,Calm,Calm,-,N/A,,Clear,0,2013-02-08 09:53:00
3:53 AM,10.0,6.1,84,30.04,10.0,East,3.5,-,N/A,,Clear,100,2013-02-08 10:53:00
4:53 AM,10.0,5.0,80,30.05,10.0,Calm,Calm,-,N/A,,Clear,0,2013-02-08 11:53:00
5:53 AM,9.0,6.1,88,30.08,10.0,Calm,Calm,-,N/A,,Clear,0,2013-02-08 12:53:00
6:53 AM,7.0,3.9,87,30.12,10.0,Calm,Calm,-,N/A,,Clear,0,2013-02-08 13:53:00
7:53 AM,7.0,3.0,84,30.13,9.0,ESE,4.6,-,N/A,,Partly Cloudy,110,2013-02-08 14:53:00
8:53 AM,10.0,6.1,84,30.13,10.0,Calm,Calm,-,N/A,,Clear,0,2013-02-08 15:53:00
9:53 AM,12.9,9.0,84,30.12,9.0,Calm,Calm,-,N/A,,Clear,0,2013-02-08 16:53:00
10:53 AM,17.1,12.0,81,30.10,10.0,Calm,Calm,-,N/A,,Scattered Clouds,0,2013-02-08 17:53:00
11:53 AM,21.0,14.0,74,30.07,10.0,Calm,Calm,-,N/A,,Clear,0,2013-02-08 18:53:00
12:53 PM,26.1,17.1,69,30.04,10.0,Calm,Calm,-,N/A,,Clear,0,2013-02-08 19:53:00
1:53 PM,28.0,19.9,72,30.04,10.0,SSE,5.8,-,N/A,,Mostly Cloudy,160,2013-02-08 20:53:00
2:53 PM,28.9,21.0,72,30.02,10.0,SE,8.1,-,N/A,,Scattered Clouds,140,2013-02-08 21:53:00
3:53 PM,30.9,19.9,64,30.01,10.0,SSE,4.6,-,N/A,,Overcast,150,2013-02-08 22:53:00
4:53 PM,32.0,17.1,54,30.00,10.0,WNW,9.2,-,N/A,,Overcast,300,2013-02-08 23:53:00
5:53 PM,28.9,18.0,64,30.02,10.0,WNW,8.1,-,N/A,,Mostly Cloudy,290,2013-02-09 00:53:00
6:53 PM,27.0,17.1,66,30.05,10.0,NW,8.1,-,N/A,,Partly Cloudy,320,2013-02-09 01:53:00
7:53 PM,27.0,16.0,63,30.06,10.0,North,9.2,-,N/A,,Mostly Cloudy,350,2013-02-09 02:53:00
8:53 PM,26.1,16.0,66,30.06,10.0,North,6.9,-,N/A,,Mostly Cloudy,350,2013-02-09 03:53:00
9:53 PM,26.1,16.0,66,30.04,10.0,NW,5.8,-,N/A,,Overcast,320,2013-02-09 04:53:00
10:53 PM,26.1,16.0,66,30.02,10.0,NNW,6.9,-,N/A,,Overcast,330,2013-02-09 05:53:00
11:53 PM,26.1,16.0,66,30.01,10.0,NW,6.9,-,N/A,,Overcast,310,2013-02-09 06:53:00